Location: Jesenik
(50.2330°N, 17.2000°E)
Time: 08:06:30
(UTC+02:00)

ISS - Pass Details

Date: 31 March 2019
Orbit: 408 x 410 km, 51.6° (Epoch: 21 April)

Event Time Altitude Azimuth Distance (km) Brightness Sun altitude
Rises 22:37:18 0° 286° (WNW) 2,338 0.8 -27.9°
Reaches altitude 10° 22:39:32 10° 276° (W) 1,473 -0.5 -28.1°
Enters shadow 22:39:41 11° 274° (W) 1,419 -0.6 -28.1°
